Torna al catalogo

FENGYUN 1C DEB

AttivoSSO
NORAD 35196·DEBRIS·🇨🇳 China

Lanciato May 10, 1999 da Taiyuan Satellite Launch Center

Loading…

Prossimi Passaggi (prossime 24 ore)

TLE

In scadenzaSource: Space-Track

Epoca: Sep 10, 2026, 23:40 UTC

1 35196U 99025DPC 26253.98626538  .00000856  00000-0  33440-3 0  9990
2 35196  98.5281 264.7965 0211129 268.5917 118.4066 14.20744131929993

Traccia FENGYUN 1C DEB in tempo reale con AllMySat

Download on the App Store